Regional Weather Roundup
Issued by NWS

Home | Current Version | Previous Version | Graphics & Text | Print | Product List | Glossary On
Versions: 1 2 3 4 5 6 7 8 9 10 11 12 13 14 15 16 17 18 19 20 21 22 23 24 25 26 27 28 29 30 31 32 33 34 35 36 37 38 39 40 41 42 43 44 45 46 47 48 49 50
000
ASUS45 KPSR 261000
RWRAZ

ARIZONA REGIONAL HOURLY WEATHER ROUNDUP
NATIONAL WEATHER SERVICE PHOENIX AZ
300 AM MST SUN APR 26 2015

NOTE: FAIR INDICATES FEW OR NO CLOUDS BELOW 12,000 FEET WITH NO
SIGNIFICANT WEATHER AND/OR OBSTRUCTIONS TO VISIBILITY.

AZZ001>003-036-261100-
NORTHWEST ARIZONA

CITY           SKY/WX    TMP DP  RH WIND       PRES   REMARKS
KINGMAN        PTCLDY    44  41  89 SW5       29.80R
$$

AZZ004>008-015-016-018-261100-
NORTH CENTRAL ARIZONA

CITY           SKY/WX    TMP DP  RH WIND       PRES   REMARKS
GRAND CANYON   CLOUDY    35  34  96 S3        29.77S
WILLIAMS       FLURRIES  34  32  93 W5        29.83S WCI  30
PRESCOTT       CLOUDY    42  37  82 NE3       29.77S
FLAGSTAFF      NOT AVBL
PAYSON         CLOUDY    41  39  93 CALM      29.79F
PAGE           PTCLDY    47  40  76 CALM      29.72F
$$

AZZ009>014-017-261100-
NORTHEAST ARIZONA

CITY           SKY/WX    TMP DP  RH WIND       PRES   REMARKS
WINSLOW        NOT AVBL
SAINT JOHNS    LGT RAIN  40  36  86 SW15      29.77R WCI  32
WINDOW ROCK    CLOUDY    38  34  85 S6        29.78F WCI  33
SHOW LOW       LGT RAIN  32  32 100 S14       29.78F WCI  22
$$

AZZ023-261100-
GREATER PHOENIX AREA

CITY           SKY/WX    TMP DP  RH WIND       PRES   REMARKS
PHOENIX        MOCLDY    57  52  83 SE6       29.75F
DEER VALLEY    CLOUDY    53  51  93 E3        29.75F
SCOTTSDALE     MOCLDY    54  50  86 CALM      29.77F
$$

AZZ027-028-261100-
SOUTHWEST MARICOPA COUNTY AND PINAL COUNTY

CITY           SKY/WX    TMP DP  RH WIND       PRES   REMARKS
CASA GRANDE    CLOUDY    55  48  76 CALM      29.78S
$$

AZZ503-504-507>509-261100-
SOUTHEAST ARIZONA

CITY           SKY/WX    TMP DP  RH WIND       PRES   REMARKS
TUCSON         CLOUDY    55  48  77 NW9       29.83F
DAVIS-MONTHAN  CLOUDY    54  48  82 W5        29.81S
NOGALES        CLOUDY    55  38  52 SW15      29.83F
SAFFORD        LGT RAIN  49  46  90 NW22G31   29.79R
$$

AZZ020-021-025-026-031-261100-
SOUTHWEST ARIZONA

CITY           SKY/WX    TMP DP  RH WIND       PRES   REMARKS
YUMA           NOT AVBL
$$

CAZ031-033-041-043-047-048-061-261100-
SOUTHERN CALIFORNIA

CITY           SKY/WX    TMP DP  RH WIND       PRES   REMARKS
DOWNTOWN L.A.  PTCLDY    56  50  80 SE3       29.91F
L.A. AIRPORT   PTCLDY    53  49  86 E5        29.92F
SAN DIEGO      MOCLDY    61  49  64 CALM      29.96S
BURBANK        PTCLDY    62  41  46 N14       29.90F
ONTARIO        PTCLDY    52  49  89 N3        29.92S
RIVERSIDE      CLEAR     52  50  93 NE3       29.92S
PALM SPRINGS   CLEAR     62  41  46 SW3       29.83R
EL CENTRO NAS  CLEAR     61  44  53 W13       29.83S
IMPERIAL       CLEAR     59  46  62 W10       29.81S
BLYTHE         CLEAR     64  36  35 CALM      29.77S
$$

NVZ020-UTZ003-261100-
SOUTHERN NEVADA-UTAH

CITY           SKY/WX    TMP DP  RH WIND       PRES   REMARKS
LAS VEGAS      NOT AVBL
SALT LAKE CITY LGT RAIN  41  38  89 NW22      29.78R
$$

NMZ009-TXZ055-261100-
NEW MEXICO-WEST TEXAS

CITY           SKY/WX    TMP DP  RH WIND       PRES   REMARKS
ALBUQUERQUE    LGT RAIN  56  32  40 S3        29.77S
EL PASO        MOCLDY    65  23  20 SW16      29.78F
$$


........................KEY........................
SKY/WX - SKY CONDITION/WEATHER
TMP    - TEMPERATURE IN FAHRENHEIT
DP     - DEW POINT IN FAHRENHEIT
RH     - RELATIVE HUMIDITY IN PERCENT
WIND   - DIRECTION AND SPEED IN MILES PER HOUR (MPH)
VRB    - VARIABLE WIND DIRECTION
PRES   - MEAN SEA LEVEL PRESSURE IN INCHES OF MERCURY
         F - FALLING PRESSURE   R - RISING PRESSURE
         S - STEADY PRESSURE
VSB    - VISIBILITY IN MILES
HX     - HEAT INDEX IN FAHRENHEIT
WCI    - WIND CHILL INDEX IN FAHRENHEIT
TC     - TEMPERATURE IN CELSIUS WHICH IS ALSO KNOWN AS
         TEMPERATURE IN CENTIGRADE
AFB    - AIR FORCE BASE
         LUKE AFB IS LUKE AIR FORCE BASE
         DAVIS-MONTHAN IS DAVIS-MONTHAN AIR FORCE BASE
NAS    - NAVAL AIR STATION
         EL CENTRO NAS IS EL CENTRO NAVAL AIR STATION
N/A    - NOT AVAILABLE




USA.gov is the U.S. government's official web portal to all federal, state and local government web resources and services.